QPF
0.00 0.00 0.00 0.00 0.01 0.01 0.01 0.01 0.01 0.02 0.02 0.02 0.01 0.01 0.01 0.01 0.01 0.00 0.00 0.00 0.00 0.01 0.01 0.01 0.01 0.01 0.01 0.01 0.00 0.00 0.00 0.00 0.01 0.01 0.02 0.03 0.05 0.05
0.00 0.00 0.00 0.00 0.00 0.01 0.01 0.01 0.01 0.01 0.02 0.02 0.02 0.01 0.01 0.01 0.01 0.01 0.01 0.01 0.01 0.01 0.01 0.01 0.01 0.00 0.00 0.00 0.00 0.00 0.00 0.00 0.01 0.01 0.02 0.02 0.03 0.03
0.00 0.00 0.00 0.00 0.00 0.01 0.01 0.01 0.01 0.01 0.01 0.01 0.02 0.01 0.01 0.01 0.01 0.01 0.01 0.01 0.01 0.01 0.01 0.00 0.00 0.00 0.00 0.00 0.00 0.00 0.00 0.00 0.00 0.01 0.01 0.02 0.02 0.03
0.00 0.00 0.00 0.00 0.00 0.00 0.01 0.01 0.01 0.01 0.01 0.01 0.01 0.01 0.01 0.01 0.02 0.02 0.01 0.00 0.00 0.00 0.00 0.00 0.00 0.00 0.00 0.00 0.00 0.00 0.00 0.00 0.00 0.00 0.01 0.01 0.01 0.02
0.00 0.00 0.00 0.01 0.01 0.01 0.01 0.01 0.01 0.01 0.01 0.01 0.01 0.01 0.01 0.00 0.00 0.00 0.00 0.00 0.00 0.00 0.00 0.00 0.00 0.00 0.00 0.00 0.00 0.00 0.00 0.00 0.00 0.00 0.01 0.01 0.01 0.01
0.00 0.00 0.00 0.00 0.01 0.01 0.01 0.01 0.01 0.01 0.01 0.01 0.00 0.00 0.00 0.00 0.00 0.00 0.01 0.01 0.00 0.00 0.00 0.00 0.00 0.00 0.00 0.00 0.00 0.00 0.00 0.00 0.00 0.00 0.00 0.01 0.01 0.01
0.00 0.00 0.00 0.01 0.01 0.01 0.01 0.01 0.01 0.01 0.01 0.01 0.00 0.00 0.00 0.00 0.00 0.00 0.00 0.00 0.01 0.01 0.01 0.00 0.00 0.00 0.00 0.00 0.00 0.00 0.00 0.00 0.00 0.00 0.01 0.01 0.01 0.01
0.00 0.00 0.01 0.01 0.01 0.01 0.01 0.01 0.01 0.01 0.01 0.01 0.01 0.00 0.00 0.00 0.00 0.00 0.00 0.00 0.00 0.00 0.00 0.00 0.00 0.00 0.00 0.00 0.00 0.00 0.00 0.00 0.00 0.00 0.01 0.01 0.00 0.01
0.00 0.01 0.01 0.00 0.00 0.01 0.01 0.01 0.01 0.01 0.01 0.01 0.01 0.00 0.00 0.00 0.00 0.00 0.00 0.00 0.00 0.00 0.00 0.00 0.00 0.00 0.00 0.00 0.00 0.00 0.00 0.00 0.00 0.00 0.00 0.00 0.00 0.00
0.01 0.01 0.01 0.00 0.00 0.00 0.01 0.01 0.01 0.01 0.01 0.01 0.01 0.00 0.01 0.01 0.01 0.00 0.00 0.00 0.00 0.00 0.00 0.00 0.00 0.00 0.00 0.00 0.00 0.00 0.00 0.00 0.00 0.00 0.00 0.00 0.00 0.00
0.02 0.01 0.01 0.01 0.01 0.01 0.01 0.01 0.01 0.01 0.01 0.01 0.01 0.01 0.01 0.01 0.01 0.01 0.00 0.00 0.00 0.00 0.00 0.00 0.00 0.00 0.00 0.00 0.00 0.00 0.00 0.00 0.00 0.00 0.00 0.00 0.00 0.00
0.03 0.02 0.02 0.02 0.01 0.01 0.01 0.01 0.01 0.00 0.00 0.01 0.01 0.01 0.01 0.01 0.01 0.01 0.01 0.01 0.01 0.00 0.00 0.00 0.00 0.00 0.00 0.00 0.00 0.00 0.00 0.00 0.00 0.00 0.00 0.00 0.00 0.00
0.03 0.02 0.01 0.01 0.01 0.01 0.01 0.01 0.01 0.01 0.01 0.01 0.01 0.01 0.01 0.01 0.01 0.01 0.01 0.01 0.01 0.01 0.00 0.00 0.00 0.00 0.00 0.00 0.00 0.00 0.00 0.00 0.00 0.00 0.00 0.00 0.00 0.00
0.02 0.02 0.01 0.01 0.01 0.01 0.01 0.01 0.01 0.01 0.01 0.01 0.01 0.01 0.01 0.01 0.01 0.01 0.02 0.02 0.01 0.01 0.01 0.01 0.01 0.01 0.01 0.01 0.00 0.00 0.00 0.00 0.00 0.00 0.00 0.00 0.00 0.00
0.02 0.02 0.01 0.01 0.01 0.01 0.01 0.01 0.01 0.00 0.00 0.00 0.01 0.01 0.01 0.01 0.01 0.01 0.01 0.03 0.03 0.02 0.02 0.02 0.02 0.01 0.01 0.01 0.00 0.00 0.00 0.00 0.00 0.00 0.00 0.00 0.00 0.00
0.02 0.02 0.01 0.01 0.01 0.01 0.01 0.01 0.00 0.00 0.00 0.00 0.01 0.01 0.01 0.01 0.01 0.01 0.02 0.02 0.03 0.03 0.03 0.03 0.02 0.01 0.01 0.00 0.00 0.00 0.00 0.00 0.00 0.00 0.00 0.00 0.00 0.00
0.02 0.02 0.02 0.03 0.03 0.03 0.01 0.01 0.00 0.00 0.01 0.01 0.01 0.01 0.01 0.01 0.02 0.01 0.02 0.02 0.02 0.02 0.02 0.03 0.03 0.03 0.02 0.01 0.00 0.00 0.00 0.00 0.00 0.00 0.00 0.00 0.00 0.00
0.03 0.03 0.04 0.03 0.02 0.02 0.01 0.01 0.01 0.01 0.01 0.01 0.01 0.01 0.01 0.01 0.02 0.02 0.02 0.02 0.02 0.02 0.01 0.01 0.02 0.02 0.02 0.01 0.00 0.00 0.00 0.00 0.00 0.00 0.00 0.00 0.00 0.00
0.04 0.04 0.04 0.03 0.02 0.02 0.02 0.02 0.02 0.02 0.02 0.01 0.01 0.01 0.01 0.01 0.02 0.02 0.03 0.02 0.02 0.02 0.02 0.02 0.01 0.02 0.01 0.01 0.00 0.00 0.00 0.00 0.00 0.00 0.00 0.00 0.00 0.00
0.04 0.04 0.04 0.03 0.03 0.02 0.02 0.02 0.02 0.02 0.03 0.03 0.02 0.02 0.01 0.01 0.02 0.02 0.02 0.03 0.03 0.02 0.02 0.03 0.02 0.02 0.01 0.01 0.01 0.01 0.01 0.01 0.01 0.01 0.01 0.00 0.00 0.00
0.04 0.05 0.05 0.04 0.04 0.03 0.03 0.03 0.04 0.04 0.04 0.04 0.04 0.03 0.02 0.02 0.02 0.02 0.02 0.02 0.03 0.03 0.03 0.03 0.03 0.03 0.02 0.02 0.02 0.01 0.01 0.01 0.01 0.01 0.01 0.01 0.01 0.01
0.04 0.04 0.04 0.04 0.04 0.04 0.04 0.04 0.05 0.05 0.05 0.05 0.04 0.03 0.03 0.02 0.02 0.03 0.03 0.03 0.02 0.02 0.03 0.03 0.03 0.04 0.04 0.03 0.02 0.01 0.01 0.01 0.01 0.01 0.01 0.01 0.01 0.01
0.04 0.04 0.04 0.03 0.03 0.04 0.04 0.04 0.04 0.04 0.04 0.04 0.04 0.03 0.03 0.04 0.03 0.03 0.03 0.03 0.03 0.03 0.03 0.03 0.03 0.03 0.03 0.02 0.02 0.01 0.01 0.01 0.01 0.01 0.01 0.01 0.01 0.01
MSLP
1022.42 1022.65 1022.92 1023.22 1023.55 1023.88 1024.21 1024.53 1024.84 1025.13 1025.39 1025.64 1025.87 1026.07 1026.26 1026.41 1026.53 1026.63 1026.68 1026.71 1026.71 1026.69 1026.66 1026.62 1026.59 1026.55 1026.53 1026.51 1026.50 1026.49 1026.49 1026.48 1026.46 1026.43 1026.40 1026.35 1026.30 1026.24
1022.68 1022.90 1023.15 1023.43 1023.72 1024.01 1024.30 1024.58 1024.85 1025.10 1025.34 1025.58 1025.80 1026.01 1026.20 1026.38 1026.53 1026.65 1026.74 1026.80 1026.83 1026.84 1026.83 1026.82 1026.81 1026.81 1026.81 1026.83 1026.85 1026.87 1026.89 1026.91 1026.90 1026.87 1026.83 1026.76 1026.67 1026.58
1022.97 1023.18 1023.40 1023.64 1023.89 1024.14 1024.37 1024.60 1024.82 1025.02 1025.23 1025.43 1025.63 1025.84 1026.03 1026.22 1026.38 1026.53 1026.64 1026.72 1026.78 1026.81 1026.83 1026.85 1026.87 1026.89 1026.93 1026.99 1027.05 1027.11 1027.16 1027.20 1027.21 1027.19 1027.13 1027.05 1026.94 1026.82
1023.25 1023.43 1023.62 1023.82 1024.02 1024.22 1024.41 1024.58 1024.75 1024.91 1025.07 1025.24 1025.42 1025.60 1025.79 1025.97 1026.14 1026.29 1026.41 1026.51 1026.58 1026.63 1026.67 1026.70 1026.74 1026.79 1026.86 1026.94 1027.04 1027.14 1027.22 1027.28 1027.31 1027.30 1027.25 1027.16 1027.03 1026.89
1023.43 1023.59 1023.75 1023.92 1024.08 1024.24 1024.38 1024.52 1024.64 1024.76 1024.88 1025.02 1025.16 1025.32 1025.48 1025.65 1025.81 1025.96 1026.08 1026.17 1026.24 1026.29 1026.33 1026.36 1026.41 1026.47 1026.55 1026.65 1026.77 1026.89 1027.01 1027.10 1027.16 1027.17 1027.13 1027.05 1026.93 1026.79
1023.49 1023.62 1023.76 1023.90 1024.04 1024.18 1024.29 1024.40 1024.49 1024.57 1024.66 1024.76 1024.87 1024.99 1025.12 1025.26 1025.40 1025.52 1025.62 1025.70 1025.75 1025.78 1025.80 1025.82 1025.85 1025.90 1025.98 1026.08 1026.21 1026.35 1026.49 1026.61 1026.70 1026.75 1026.75 1026.70 1026.61 1026.50
1023.39 1023.51 1023.63 1023.76 1023.90 1024.02 1024.12 1024.21 1024.28 1024.33 1024.39 1024.44 1024.51 1024.59 1024.68 1024.78 1024.87 1024.96 1025.03 1025.08 1025.10 1025.10 1025.09 1025.07 1025.07 1025.09 1025.14 1025.23 1025.35 1025.49 1025.65 1025.81 1025.94 1026.04 1026.10 1026.12 1026.09 1026.02
1023.15 1023.25 1023.37 1023.50 1023.64 1023.75 1023.85 1023.93 1023.98 1024.01 1024.03 1024.04 1024.06 1024.09 1024.13 1024.17 1024.23 1024.27 1024.30 1024.31 1024.29 1024.25 1024.19 1024.13 1024.08 1024.06 1024.07 1024.12 1024.23 1024.37 1024.54 1024.73 1024.92 1025.09 1025.23 1025.32 1025.37 1025.39
1022.78 1022.88 1023.00 1023.13 1023.27 1023.39 1023.48 1023.54 1023.57 1023.57 1023.54 1023.51 1023.48 1023.45 1023.44 1023.43 1023.44 1023.44 1023.43 1023.40 1023.34 1023.25 1023.15 1023.04 1022.93 1022.85 1022.81 1022.83 1022.91 1023.05 1023.24 1023.46 1023.70 1023.94 1024.17 1024.35 1024.50 1024.60
1022.33 1022.42 1022.53 1022.66 1022.79 1022.90 1022.98 1023.02 1023.02 1022.98 1022.91 1022.83 1022.74 1022.67 1022.60 1022.55 1022.51 1022.48 1022.43 1022.37 1022.27 1022.15 1022.01 1021.85 1021.69 1021.56 1021.47 1021.45 1021.49 1021.62 1021.81 1022.06 1022.36 1022.66 1022.96 1023.23 1023.47 1023.65
1021.80 1021.89 1021.99 1022.11 1022.22 1022.31 1022.36 1022.36 1022.32 1022.24 1022.13 1022.00 1021.86 1021.74 1021.64 1021.55 1021.48 1021.42 1021.36 1021.27 1021.16 1021.01 1020.83 1020.64 1020.44 1020.26 1020.13 1020.06 1020.07 1020.18 1020.37 1020.63 1020.95 1021.30 1021.66 1021.99 1022.29 1022.54
1021.24 1021.31 1021.39 1021.47 1021.55 1021.60 1021.61 1021.57 1021.49 1021.36 1021.20 1021.03 1020.86 1020.71 1020.58 1020.48 1020.40 1020.33 1020.26 1020.17 1020.05 1019.89 1019.70 1019.48 1019.25 1019.03 1018.86 1018.75 1018.73 1018.80 1018.97 1019.23 1019.55 1019.91 1020.29 1020.65 1020.98 1021.26
1020.65 1020.69 1020.73 1020.77 1020.80 1020.80 1020.76 1020.67 1020.54 1020.38 1020.19 1019.99 1019.80 1019.63 1019.49 1019.38 1019.31 1019.24 1019.18 1019.10 1018.99 1018.84 1018.64 1018.41 1018.16 1017.92 1017.71 1017.56 1017.50 1017.53 1017.66 1017.88 1018.17 1018.51 1018.87 1019.22 1019.54 1019.81
1020.04 1020.03 1020.03 1020.01 1019.99 1019.93 1019.84 1019.72 1019.55 1019.36 1019.15 1018.93 1018.74 1018.56 1018.43 1018.33 1018.27 1018.22 1018.17 1018.10 1018.01 1017.86 1017.67 1017.44 1017.18 1016.92 1016.69 1016.50 1016.39 1016.38 1016.45 1016.61 1016.84 1017.12 1017.42 1017.71 1017.99 1018.22
1019.42 1019.36 1019.31 1019.24 1019.16 1019.06 1018.93 1018.77 1018.58 1018.37 1018.16 1017.94 1017.75 1017.59 1017.46 1017.37 1017.31 1017.27 1017.24 1017.18 1017.09 1016.96 1016.77 1016.54 1016.28 1016.01 1015.76 1015.54 1015.39 1015.31 1015.32 1015.40 1015.55 1015.75 1015.96 1016.18 1016.38 1016.56
1018.82 1018.72 1018.62 1018.50 1018.38 1018.24 1018.09 1017.91 1017.72 1017.51 1017.30 1017.09 1016.90 1016.74 1016.62 1016.53 1016.47 1016.42 1016.38 1016.32 1016.23 1016.10 1015.92 1015.69 1015.43 1015.15 1014.87 1014.63 1014.44 1014.30 1014.24 1014.25 1014.31 1014.41 1014.54 1014.66 1014.79 1014.90
1018.29 1018.15 1018.01 1017.86 1017.72 1017.56 1017.40 1017.22 1017.03 1016.83 1016.63 1016.43 1016.24 1016.07 1015.93 1015.82 1015.73 1015.66 1015.58 1015.50 1015.39 1015.24 1015.05 1014.81 1014.55 1014.26 1013.98 1013.71 1013.48 1013.30 1013.18 1013.12 1013.10 1013.12 1013.17 1013.22 1013.28 1013.34
1017.88 1017.71 1017.55 1017.39 1017.23 1017.08 1016.93 1016.76 1016.58 1016.39 1016.19 1015.99 1015.78 1015.59 1015.41 1015.24 1015.10 1014.96 1014.83 1014.70 1014.54 1014.36 1014.14 1013.89 1013.61 1013.31 1013.01 1012.73 1012.47 1012.26 1012.10 1011.98 1011.91 1011.88 1011.88 1011.89 1011.92 1011.97
1017.63 1017.45 1017.28 1017.12 1016.97 1016.83 1016.69 1016.54 1016.37 1016.18 1015.97 1015.75 1015.50 1015.26 1015.01 1014.77 1014.54 1014.33 1014.11 1013.90 1013.68 1013.44 1013.18 1012.90 1012.60 1012.28 1011.97 1011.67 1011.40 1011.16 1010.97 1010.83 1010.74 1010.69 1010.67 1010.69 1010.73 1010.80
1017.56 1017.38 1017.22 1017.07 1016.94 1016.81 1016.68 1016.53 1016.37 1016.17 1015.93 1015.66 1015.36 1015.05 1014.72 1014.38 1014.06 1013.74 1013.43 1013.13 1012.83 1012.52 1012.21 1011.88 1011.54 1011.20 1010.86 1010.54 1010.24 1009.99 1009.79 1009.65 1009.56 1009.52 1009.53 1009.59 1009.69 1009.83
1017.67 1017.50 1017.34 1017.20 1017.08 1016.96 1016.83 1016.68 1016.50 1016.27 1015.99 1015.67 1015.30 1014.90 1014.48 1014.05 1013.62 1013.20 1012.80 1012.40 1012.02 1011.64 1011.26 1010.87 1010.48 1010.09 1009.72 1009.36 1009.04 1008.77 1008.56 1008.42 1008.35 1008.35 1008.43 1008.56 1008.75 1008.98
1017.91 1017.74 1017.59 1017.46 1017.33 1017.20 1017.06 1016.88 1016.67 1016.40 1016.07 1015.68 1015.25 1014.77 1014.26 1013.75 1013.23 1012.73 1012.24 1011.76 1011.30 1010.84 1010.39 1009.94 1009.48 1009.03 1008.60 1008.19 1007.83 1007.52 1007.30 1007.16 1007.11 1007.16 1007.30 1007.53 1007.83 1008.18
1018.21 1018.04 1017.88 1017.74 1017.59 1017.44 1017.26 1017.05 1016.78 1016.46 1016.07 1015.63 1015.13 1014.59 1014.03 1013.45 1012.88 1012.31 1011.76 1011.22 1010.70 1010.18 1009.65 1009.13 1008.59 1008.06 1007.55 1007.06 1006.63 1006.28 1006.02 1005.86 1005.83 1005.92 1006.13 1006.45 1006.85 1007.33
Thickness
5676 5675 5675 5674 5672 5671 5669 5668 5665 5661 5657 5652 5650 5646 5644 5642 5640 5640 5639 5635 5634 5633 5632 5631 5630 5629 5628 5627 5626 5625 5625 5624 5623 5623 5622 5621 5621 5620
5671 5671 5670 5670 5668 5666 5665 5664 5664 5662 5656 5652 5646 5644 5641 5639 5636 5635 5634 5631 5629 5627 5626 5625 5624 5623 5622 5621 5620 5618 5618 5617 5616 5615 5614 5613 5612 5612
5668 5667 5666 5664 5663 5662 5661 5659 5658 5657 5652 5648 5644 5641 5638 5636 5633 5631 5630 5628 5626 5623 5621 5620 5619 5617 5616 5615 5614 5612 5611 5610 5609 5608 5606 5605 5604 5603
5664 5663 5661 5659 5659 5658 5656 5655 5654 5652 5649 5645 5641 5638 5636 5633 5631 5628 5627 5625 5623 5619 5617 5615 5614 5612 5611 5609 5608 5606 5604 5603 5601 5600 5598 5597 5596 5595
5661 5659 5658 5656 5654 5653 5651 5651 5650 5648 5645 5642 5639 5635 5633 5630 5628 5625 5624 5621 5620 5616 5613 5611 5609 5607 5605 5604 5602 5600 5598 5596 5595 5592 5591 5589 5587 5585
5656 5655 5654 5652 5651 5650 5648 5648 5646 5643 5641 5638 5635 5632 5629 5626 5624 5623 5621 5619 5617 5614 5611 5608 5606 5603 5601 5598 5596 5594 5592 5590 5587 5585 5583 5581 5578 5576
5651 5650 5649 5647 5644 5644 5643 5642 5641 5639 5637 5635 5632 5630 5627 5623 5621 5620 5618 5616 5615 5612 5609 5607 5604 5602 5598 5594 5591 5588 5586 5583 5581 5578 5576 5573 5570 5568
5646 5645 5643 5640 5638 5635 5634 5633 5633 5634 5634 5631 5629 5627 5625 5622 5618 5616 5614 5613 5611 5609 5606 5604 5601 5598 5595 5591 5587 5583 5580 5577 5575 5572 5569 5566 5564 5561
5642 5641 5639 5636 5633 5633 5629 5626 5626 5624 5624 5627 5625 5624 5622 5619 5615 5613 5610 5609 5607 5605 5601 5600 5598 5594 5591 5587 5582 5578 5575 5572 5569 5566 5563 5560 5557 5554
5637 5636 5634 5633 5630 5628 5627 5625 5624 5621 5619 5618 5619 5618 5615 5612 5610 5608 5606 5603 5602 5598 5595 5594 5593 5590 5586 5581 5577 5573 5569 5565 5562 5559 5556 5553 5550 5547
5632 5631 5630 5628 5624 5620 5620 5620 5619 5616 5613 5611 5609 5608 5606 5603 5602 5601 5599 5598 5597 5595 5590 5587 5587 5584 5581 5577 5572 5568 5563 5559 5555 5552 5548 5545 5542 5540
5627 5625 5622 5622 5618 5615 5616 5615 5613 5612 5610 5607 5605 5603 5601 5598 5595 5594 5593 5592 5591 5590 5585 5580 5580 5577 5576 5573 5568 5563 5559 5554 5550 5546 5542 5538 5535 5532
5623 5622 5620 5615 5612 5610 5609 5610 5608 5606 5605 5603 5602 5600 5598 5596 5592 5589 5587 5585 5584 5583 5579 5574 5572 5570 5567 5566 5563 5558 5553 5549 5545 5541 5536 5532 5528 5523
5618 5617 5615 5610 5607 5604 5603 5602 5599 5598 5598 5598 5597 5595 5593 5591 5588 5585 5581 5578 5576 5574 5570 5566 5564 5561 5559 5558 5556 5553 5547 5543 5539 5535 5532 5528 5523 5518
5612 5610 5608 5604 5601 5599 5597 5595 5593 5594 5594 5593 5592 5591 5589 5586 5582 5579 5576 5572 5569 5566 5563 5559 5556 5553 5550 5549 5548 5545 5541 5537 5532 5528 5524 5522 5518 5514
5604 5602 5599 5597 5595 5593 5592 5591 5590 5590 5589 5588 5587 5585 5582 5579 5576 5573 5570 5567 5564 5562 5558 5553 5549 5545 5543 5541 5538 5536 5533 5529 5525 5520 5516 5514 5511 5507
5599 5598 5596 5594 5592 5591 5590 5589 5587 5585 5583 5582 5580 5578 5575 5573 5570 5567 5563 5561 5559 5557 5553 5547 5543 5538 5534 5531 5529 5528 5525 5521 5517 5512 5508 5505 5503 5499
5592 5592 5592 5591 5589 5588 5586 5584 5582 5580 5578 5576 5574 5572 5569 5567 5564 5561 5557 5554 5552 5550 5546 5541 5536 5532 5528 5526 5520 5518 5516 5512 5508 5504 5499 5496 5495 5491
5587 5588 5587 5586 5585 5583 5581 5579 5577 5574 5572 5570 5568 5566 5563 5561 5558 5555 5551 5548 5545 5542 5539 5534 5529 5525 5522 5521 5518 5508 5505 5502 5498 5495 5491 5487 5485 5482
5583 5583 5583 5581 5579 5577 5575 5572 5570 5568 5565 5564 5562 5560 5557 5554 5551 5548 5545 5541 5538 5535 5531 5526 5521 5517 5512 5510 5508 5504 5495 5491 5488 5485 5481 5478 5474 5470
5578 5577 5576 5575 5572 5570 5568 5566 5564 5561 5559 5557 5555 5552 5550 5547 5544 5541 5538 5532 5529 5527 5523 5519 5514 5506 5502 5498 5497 5496 5490 5483 5478 5474 5470 5467 5465 5462
5573 5572 5570 5568 5566 5563 5561 5558 5556 5554 5552 5550 5548 5545 5542 5539 5536 5533 5530 5526 5522 5518 5515 5510 5504 5499 5494 5491 5489 5487 5483 5477 5470 5464 5458 5454 5451 5451
5568 5566 5564 5561 5559 5557 5554 5552 5550 5548 5545 5543 5540 5537 5534 5531 5528 5525 5521 5517 5513 5509 5505 5501 5496 5491 5487 5483 5479 5477 5473 5468 5463 5458 5454 5447 5441 5437